Location: Forest
(37.3641°N, 79.2902°W)
Time: 02:44:39
(UTC+00:00)

ACS3 Solar Sail - Pass Details

Date: 08 October 2024
Orbit: 961 x 1022 km, 97.5° (Epoch: 03 November)

Event Time Altitude Azimuth Distance (km) Brightness Sun altitude
Exits shadow 00:43:13 45° 85° (E) 1,376 2.1 -23.1°
Maximum altitude 00:43:44 45° 71° (ENE) 1,360 2.1 -23.2°
Drops below altitude 10° 00:49:47 10° 1° (N) 2,836 4.3 -24.4°
Sets 00:52:24 0° 356° (N) 3,794 5.1 -24.9°
